User: anonymous   Login
Location: Caltech
(34.1382°N, 118.1253°W)
Time: 10:01:40
(UTC-08:00)
Language:

Cosmos 2237 Rocket - Orbit

View from above orbital plane
View from above orbital plane
View from above satellite
View from above satellite

Ground track
Ground track

The orbit data is extracted from the following two-line orbital elements,

1 22566U 93016B   16340.78460253 -.00000029  00000-0  95809-5 0  9997
2 22566  71.0064 112.8867 0008306  62.4553 297.7413 14.14937731223916
Epoch (UTC): 05 December 2016 18:49:49
Eccentricity: 0.0008306
inclination: 71.0064°
perigee height: 836 km
apogee height: 848 km
right ascension of ascending node: 112.8867°
argument of perigee: 62.4553°
revolutions per day: 14.14937731
mean anomaly at epoch: 297.7413°
orbit number at epoch: 22391

The dashed part of the orbit path shows where the satellite is in the earth's shadow,  

DLR